TimeEDT,TemperatureF,Dew PointF,Humidity,Sea Level PressureIn,VisibilityMPH,Wind Direction,Wind SpeedMPH,Gust SpeedMPH,PrecipitationIn,Events,Conditions,WindDirDegrees,DateUTC
12:53 AM,73.0,66.9,81,29.98,10.0,Calm,Calm,-,N/A,,Mostly Cloudy,0,2013-07-21 04:53:00
1:53 AM,73.0,68.0,84,29.96,10.0,Calm,Calm,-,N/A,,Mostly Cloudy,0,2013-07-21 05:53:00
2:53 AM,73.9,69.1,85,29.96,10.0,Calm,Calm,-,N/A,,Mostly Cloudy,0,2013-07-21 06:53:00
3:53 AM,73.0,69.1,87,29.95,10.0,SSW,3.5,-,N/A,,Mostly Cloudy,200,2013-07-21 07:53:00
4:53 AM,71.1,69.1,93,29.94,10.0,SW,4.6,-,N/A,,Mostly Cloudy,220,2013-07-21 08:53:00
5:53 AM,73.0,70.0,90,29.95,10.0,West,3.5,-,N/A,,Mostly Cloudy,260,2013-07-21 09:53:00
6:28 AM,73.4,69.8,88,29.99,10.0,West,5.8,-,N/A,,Mostly Cloudy,260,2013-07-21 10:28:00
6:53 AM,73.0,70.0,90,29.97,10.0,West,5.8,-,N/A,,Mostly Cloudy,260,2013-07-21 10:53:00
7:43 AM,73.4,69.8,88,30.02,10.0,West,5.8,-,N/A,,Mostly Cloudy,270,2013-07-21 11:43:00
7:53 AM,73.9,70.0,87,29.99,10.0,West,5.8,-,N/A,,Mostly Cloudy,270,2013-07-21 11:53:00
8:22 AM,73.4,69.8,88,30.03,10.0,West,5.8,-,N/A,,Mostly Cloudy,270,2013-07-21 12:22:00
8:53 AM,75.0,70.0,84,30.00,10.0,SW,8.1,-,N/A,,Mostly Cloudy,230,2013-07-21 12:53:00
9:42 AM,77.0,71.6,83,30.04,10.0,SW,10.4,-,N/A,,Overcast,220,2013-07-21 13:42:00
9:53 AM,77.0,70.0,79,30.01,10.0,SW,13.8,-,N/A,,Overcast,230,2013-07-21 13:53:00
10:53 AM,79.0,71.1,77,30.00,10.0,SW,8.1,-,0.00,,Mostly Cloudy,230,2013-07-21 14:53:00
11:08 AM,78.8,71.6,78,30.04,10.0,WSW,10.4,-,N/A,,Mostly Cloudy,240,2013-07-21 15:08:00
11:53 AM,78.1,73.9,87,30.00,10.0,NNW,5.8,-,0.01,,Overcast,330,2013-07-21 15:53:00
12:41 PM,78.8,71.6,78,30.02,10.0,Calm,Calm,-,0.12,,Mostly Cloudy,0,2013-07-21 16:41:00
12:53 PM,80.1,73.0,79,29.99,10.0,Calm,Calm,-,0.12,,Mostly Cloudy,0,2013-07-21 16:53:00
1:53 PM,82.0,73.9,76,29.97,9.0,West,4.6,-,0.02,,Mostly Cloudy,270,2013-07-21 17:53:00
2:29 PM,80.6,69.8,70,30.00,10.0,SW,5.8,-,0.00,Thunderstorm,Thunderstorm,220,2013-07-21 18:29:00
2:53 PM,77.0,70.0,79,29.98,10.0,West,10.4,21.9,0.00,Thunderstorm,Thunderstorm,280,2013-07-21 18:53:00
3:29 PM,75.2,71.6,89,30.02,10.0,WNW,4.6,-,0.00,Rain-Thunderstorm,Light Thunderstorms and Rain,300,2013-07-21 19:29:00
3:38 PM,75.2,71.6,89,30.02,10.0,NNW,5.8,-,0.00,Rain,Light Rain,330,2013-07-21 19:38:00
3:53 PM,75.9,71.1,85,29.98,10.0,North,6.9,-,0.00,Rain,Light Rain,360,2013-07-21 19:53:00
4:53 PM,80.1,72.0,76,29.95,10.0,SE,9.2,-,0.00,,Mostly Cloudy,130,2013-07-21 20:53:00
6:53 PM,78.1,70.0,76,29.92,10.0,South,4.6,-,N/A,,Mostly Cloudy,170,2013-07-21 22:53:00
7:53 PM,78.1,69.1,74,29.92,10.0,South,4.6,-,N/A,,Mostly Cloudy,170,2013-07-21 23:53:00
8:53 PM,77.0,71.1,82,29.95,10.0,West,4.6,-,N/A,,Overcast,270,2013-07-22 00:53:00
9:53 PM,75.0,71.1,87,29.97,10.0,WSW,3.5,-,N/A,,Scattered Clouds,250,2013-07-22 01:53:00
10:53 PM,73.9,70.0,87,29.97,10.0,SSW,6.9,-,N/A,,Scattered Clouds,200,2013-07-22 02:53:00
11:53 PM,73.9,70.0,87,29.98,10.0,WSW,5.8,-,N/A,,Mostly Cloudy,250,2013-07-22 03:53:00